Track CARTOSAT 2C now! 10-day predictions CARTOSAT 2C is classified as:
1 41599U 16040A 25181.87377662 .00003024 00000-0 14637-3 0 9995 2 41599 97.4210 241.6729 0010461 272.8721 87.1316 15.19289764500378